Location: Maiden
(35.5760°N, 81.2120°W)
Time: 03:28:23
(UTC-04:00)

CZ-2C R/B - Pass Details

Date: 02 August 2020
Orbit: 784 x 871 km, 98.3° (Epoch: 12 August)

Event Time Altitude Azimuth Distance (km) Brightness Sun altitude
Rises 21:36:07 0° 7° (N) 3,281 6.1 -13.2°
Reaches altitude 10° 21:38:28 10° 3° (N) 2,347 5.4 -13.6°
Maximum altitude 21:43:31 57° 286° (WNW) 922 3.3 -14.5°
Drops below altitude 10° 21:48:34 10° 209° (SSW) 2,344 4.9 -15.3°
Sets 21:50:55 0° 205° (SSW) 3,277 5.7 -15.7°
